Location: Summit Observatory
(39.5293°N, 75.7290°W)
Time: 20:59:57
(UTC-04:00)

YUBILEINY - Visible Passes

Search period start: 17 October 2019 00:00
Search period end: 27 October 2019 00:00
Orbit: 1478 x 1508 km, 82.5° (Epoch: 17 October)

Date Brightness Start Highest point End Pass type
(mag) Time Alt. Az. Time Alt. Az. Time Alt. Az.
17 Oct ? 03:08:08 30° ESE 03:10:13 33° E 03:17:45 10° NNE visible
17 Oct ? 05:04:08 43° WSW 05:06:35 53° WNW 05:15:12 10° N visible
18 Oct ? 02:20:00 16° E 02:21:26 17° ENE 02:26:28 10° NE visible
18 Oct ? 04:16:00 76° S 04:16:53 89° E 04:25:47 10° N visible
18 Oct ? 06:11:59 16° W 06:14:55 19° WNW 06:20:45 10° NNW visible
19 Oct ? 03:27:42 51° E 03:27:42 51° E 03:35:57 10° NNE visible
19 Oct ? 05:23:41 34° W 05:24:33 35° WNW 05:32:27 10° N visible
20 Oct ? 02:39:20 27° ENE 02:39:20 27° ENE 02:45:30 10° NNE visible
20 Oct ? 04:35:17 61° WNW 04:35:17 61° WNW 04:43:23 10° N visible
20 Oct ? 06:31:15 10° WNW 06:33:26 11° WNW 06:35:53 10° NW visible
21 Oct ? 01:50:51 13° ENE 01:50:51 13° ENE 01:53:28 10° NE visible
21 Oct ? 03:46:49 60° NNE 03:46:49 60° NNE 03:53:51 10° N visible
21 Oct ? 05:42:46 23° WNW 05:42:46 23° WNW 05:49:21 10° NNW visible
22 Oct ? 02:58:16 35° NE 02:58:16 35° NE 03:03:51 10° NNE visible
22 Oct ? 04:54:13 38° NW 04:54:13 38° NW 05:00:45 10° N visible
23 Oct ? 02:09:39 19° NE 02:09:39 19° NE 02:13:08 10° NNE visible
23 Oct ? 04:05:36 47° N 04:05:36 47° N 04:11:31 10° N visible
23 Oct ? 06:01:33 14° WNW 06:01:33 14° WNW 06:05:26 10° NNW visible
24 Oct ? 03:16:56 37° NNE 03:16:56 37° NNE 03:21:51 10° NNE visible
24 Oct ? 05:12:53 24° NW 05:12:53 24° NW 05:17:48 10° NNW visible
25 Oct ? 02:28:14 23° NE 02:28:14 23° NE 02:31:42 10° NNE visible
25 Oct ? 04:24:10 33° NNW 04:24:10 33° NNW 04:28:58 10° N visible
26 Oct ? 01:39:29 13° NE 01:39:29 13° NE 01:40:35 10° NE visible
26 Oct ? 03:35:25 33° N 03:35:25 33° N 03:39:37 10° N visible
26 Oct ? 05:31:22 16° NW 05:31:22 16° NW 05:34:20 10° NNW visible
